Location: Hains Lake
(37.8540°N, 99.8578°W)
Time: 02:19:49
(UTC+00:00)

Transit 2A - Pass Details

Date: 26 April 2021
Orbit: 602 x 957 km, 66.7° (Epoch: 14 May)

Event Time Altitude Azimuth Distance (km) Brightness Sun altitude
Rises 12:46:15 0° 233° (SW) 3,075 8.6 10.1°
Reaches altitude 10° 12:48:55 10° 244° (WSW) 2,105 7.7 10.6°
Maximum altitude 12:53:01 29° 305° (NW) 1,179 6.7 11.4°
Drops below altitude 10° 12:56:55 10° 6° (N) 1,988 8.4 12.2°
Sets 12:59:22 0° 18° (NNE) 2,874 9.3 12.7°
